User: anonymous   Login
Location: Castiglione Fibocchi
(43.5333°N, 11.7667°E)
Time: 16:21:34
(UTC+00:00)
Language:

CZ-2C R/B - Orbit

View from above orbital plane
View from above orbital plane
View from above satellite
View from above satellite

Ground track
Ground track

The orbit data is extracted from the following two-line orbital elements,

1 28222U 04012C   20292.93537185 +.00000755 +00000-0 +48862-4 0  9998
2 28222 097.6931 255.9140 0046227 329.3923 094.6428 15.10505242904631
Epoch (UTC): 18 October 2020 22:26:56
Eccentricity: 0.0046227
inclination: 97.6931°
perigee height: 503 km
apogee height: 566 km
right ascension of ascending node: 255.9140°
argument of perigee: 329.3923°
revolutions per day: 15.10505242
mean anomaly at epoch: 94.6428°
orbit number at epoch: 90463

The dashed part of the orbit path shows where the satellite is in the earth's shadow,  

DLR